User: anonymous   Login
Location: Fremont
(37.5480°N, 121.9880°W)
Time: 12:47:49
(UTC-07:00)
Language:

Cosmos 1844 Rocket - Orbit

View from above orbital plane
View from above orbital plane
View from above satellite
View from above satellite

Ground track
Ground track

The orbit data is extracted from the following two-line orbital elements,

1 17974U 87041B   17233.20956003  .00000208  00000-0  12673-3 0  9991
2 17974  71.0086 132.8506 0016053 291.3030 180.8104 14.17231573565899
Epoch (UTC): 21 August 2017 05:01:45
Eccentricity: 0.0016053
inclination: 71.0086°
perigee height: 823 km
apogee height: 846 km
right ascension of ascending node: 132.8506°
argument of perigee: 291.3030°
revolutions per day: 14.17231573
mean anomaly at epoch: 180.8104°
orbit number at epoch: 56589

The dashed part of the orbit path shows where the satellite is in the earth's shadow,  

DLR